SCP
0 -0 -0 0 0 0 0 0 0 0 -0 -0 0 0 0 -0 -0 0 -0 0 -0 -0 -0 -0 -0 -0 -0 -0 -0 -0 -0 0 0 0 -0 -0 -0 0 -0 -0 -0 -0 -0
-0 -0 -0 0 0 -0 -0 0 0 0 0 0 0 0 0 -0 0 -0 -0 -0 -0 -0 -0 -0 -0 -0 -0 -0 -0 -0 -0 -0 -0 -0 -0 -0 -0 -0 -0 -0 -0 -0 -0
-0 -0 -0 0 0 -0 0 0 0 0 0 0 0 0 -0 -0 0 -0 -0 -0 -0 -0 -0 -0 -0 -0 -0 -0 -0 -0 -0 -0 -0 -0 -0 -0 -0 -0 -0 -0 -0 -0 -0
-0 -0 0 0 0 0 0 0 0 0 0 0 0 0 -0 -0 0 -0 -0 -0 -0 -0 -0 -0 -0 -0 -0 -0 0 -0 -0 -0 -0 -0 -0 -0 -0 -0 -0 0 0 0 0
-0 -0 0 0 0 0 0 0 0 0 0 0 0 0 -0 -0 0 0 -0 -0 -0 -0 -0 -0 -0 -0 -0 0 -0 -0 -0 -0 -0 -0 -0 -0 -0 0 -0 0 0 0 0
-0 -0 0 0 0 0 0 0 0 0 0 0 0 0 0 0 0 -0 -0 -0 -0 -0 -0 -0 -0 0 0 0 -0 -0 -0 -0 -0 -0 -0 0 0 0 -0 0 0 0 0
0 0 0 0 0 0 0 0 0 0 0 0 0 0 0 0 0 0 0 -0 -0 -0 -0 0 0 0 0 -0 -0 -0 -0 -0 -0 -0 -0 0 0 0 0 0 0 0 0
0 0 0 0 0 0 0 0 0 0 0 0 0 0 0 0 0 0 0 0 -0 0 0 0 0 -0 -0 -0 -0 -0 -0 -0 -0 -0 0 0 0 0 0 0 0 0 0
0 0 0 0 0 0 0 0 0 0 0 0 0 0 0 0 0 0 0 0 0 0 0 0 0 -0 -0 -0 -0 -0 -0 -0 -0 0 0 0 0 0 0 0 0 0 0
0 0 0 0 0 0 0 0 0 0 0 0 0 0 0 0 0 0 0 0 0 0 0 0 0 -0 -0 -0 -0 -0 -0 -0 0 0 0 0 0 0 0 0 0 0 0
0 0 0 0 0 0 0 0 0 0 0 0 0 0 0 0 0 0 0 0 0 0 0 0 -0 -0 -0 -0 -0 -0 -0 0 0 0 0 0 0 0 -0 -0 0 0 0
0 0 0 0 0 0 0 0 0 0 0 0 0 0 0 0 0 0 0 0 0 0 0 0 -0 -0 -0 0 0 0 0 0 0 0 0 0 0 0 -0 -0 0 0 0
0 0 0 0 0 0 0 0 0 0 0 0 0 0 0 0 0 0 0 0 0 0 0 0 0 0 0 0 0 0 0 0 0 0 0 0 0 0 -0 0 0 0 0
0 0 0 0 0 0 0 0 0 0 0 0 0 0 0 0 0 0 0 0 0 0 0 0 0 0 0 0 0 0 0 0 0 0 0 0 0 0 -0 0 0 0 0
0 0 0 0 0 0 0 0 0 0 0 0 0 0 0 0 0 0 0 0 0 0 0 0 0 0 0 0 0 0 0 0 0 0 0 0 0 0 0 0 0 0 0
0 0 0 0 0 0 0 0 0 0 0 0 0 0 0 0 0 0 0 0 0 0 0 0 0 0 0 0 0 0 0 0 0 0 0 0 0 0 0 0 0 0 0
0 0 0 0 0 0 0 0 0 0 0 0 0 0 0 0 0 0 0 0 0 0 0 0 0 0 0 0 0 0 0 0 0 0 0 0 0 0 0 0 0 0 0
0 0 0 0 0 0 0 0 0 0 0 0 0 0 0 0 0 0 0 0 0 0 0 0 0 0 0 0 0 0 0 0 0 0 0 0 0 0 0 0 0 0 0
0 0 0 0 0 0 0 0 0 0 0 0 0 0 0 0 0 0 0 0 0 0 0 0 0 0 0 0 0 0 0 0 0 0 0 0 0 0 0 0 0 0 0
0 0 0 0 0 0 0 0 0 0 0 0 0 0 0 0 0 0 0 0 0 0 0 0 0 0 0 0 0 0 0 0 0 0 0 0 0 0 0 0 0 0 0
0 0 0 0 0 0 0 0 0 0 0 0 0 0 0 0 0 0 0 0 0 0 0 0 0 0 0 0 0 0 0 0 0 0 0 0 0 0 0 0 0 0 0
0 0 0 0 0 0 0 0 0 0 0 0 0 0 0 0 0 0 0 0 0 0 0 0 0 0 0 0 0 0 0 0 0 0 0 0 0 0 0 0 0 0 0
0 0 0 0 0 0 0 0 0 0 0 0 0 0 0 0 0 0 0 0 0 0 0 0 0 0 0 0 0 0 0 0 0 0 0 0 0 0 0 0 0 0 0
0 0 0 0 0 0 0 0 0 0 0 0 0 0 0 0 0 0 0 0 0 0 0 0 0 0 0 0 0 0 0 0 0 0 0 0 0 0 0 0 0 0 0
0 0 0 0 0 0 0 0 0 0 0 0 0 0 0 0 0 0 0 0 0 0 0 0 0 0 0 0 0 0 0 0 0 0 0 0 0 0 0 0 0 0 0
0 0 0 0 0 0 0 0 0 0 0 0 0 0 0 0 0 0 0 0 0 0 0 0 0 0 0 0 0 0 0 0 0 0 0 0 0 0 0 0 0 0 0
Wind_Speed_500mb
53 58 56 50 40 32 28 37 37 32 30 29 31 30 23 20 13 4 4 14 23 25 20 22 21 21 21 21 22 23 21 21 21 19 17 16 18 17 16 14 12 10 7
61 61 58 50 39 32 31 40 38 34 30 32 30 24 18 13 8 5 8 8 24 22 21 21 21 19 19 19 18 19 18 16 14 14 14 16 14 14 14 13 11 9 8
62 61 59 50 42 35 41 45 39 35 34 33 30 22 15 11 8 8 11 13 23 23 21 19 19 17 15 14 13 14 14 13 11 12 12 9 8 10 12 13 12 12 12
62 59 60 53 47 42 49 48 44 39 34 31 25 20 15 13 12 14 13 16 20 21 19 18 15 13 11 10 10 10 10 9 9 9 9 7 7 8 10 13 16 16 15
63 58 60 55 49 45 51 47 44 37 33 28 24 20 17 15 15 17 17 17 19 18 16 15 12 9 7 7 7 8 8 8 7 6 6 6 6 6 9 13 21 22 16
62 59 59 56 51 48 50 48 43 37 31 27 24 19 18 18 19 19 20 19 18 17 14 12 9 6 4 4 4 5 6 7 7 7 6 7 6 6 8 10 18 27 24
66 60 60 56 51 49 48 45 41 36 30 26 21 20 20 20 21 20 19 18 18 16 13 11 8 6 3 2 3 5 6 7 8 8 8 8 8 9 9 9 15 18 23
68 62 62 56 50 47 49 44 39 36 29 24 22 23 22 21 22 22 19 18 16 14 12 10 7 4 3 1 1 2 5 7 8 7 9 8 9 11 13 12 10 15 16
65 56 60 59 51 46 46 46 41 35 28 23 23 23 23 23 24 22 20 18 14 13 12 9 7 5 4 2 1 1 4 5 6 7 10 10 12 11 15 9 11 15 20
62 56 51 53 52 45 45 44 41 34 28 25 25 24 23 25 26 23 21 18 15 13 12 10 8 7 6 4 3 1 2 5 7 10 11 11 12 14 8 12 13 13 23
61 66 50 53 49 44 43 44 40 32 27 25 25 24 21 21 22 21 20 18 15 13 12 10 9 8 7 5 4 4 4 6 7 7 10 13 16 15 11 10 5 21 22
60 62 55 55 61 51 49 47 42 36 30 28 27 25 22 23 23 21 20 18 17 15 13 12 11 10 8 7 7 6 6 8 7 9 11 16 17 18 13 9 15 23 23
57 55 55 51 57 62 57 52 45 36 34 31 29 27 25 23 23 21 20 18 17 15 13 13 11 10 10 10 9 8 8 10 9 11 15 19 21 20 16 14 18 26 26
58 57 58 52 55 63 58 56 48 38 37 32 29 27 26 24 23 21 20 18 18 17 15 14 14 13 12 12 11 11 12 13 12 14 16 21 25 24 18 16 23 21 17
54 56 59 54 54 62 63 56 51 43 38 32 28 25 25 25 24 23 22 22 20 20 17 15 15 15 15 16 16 15 15 15 15 16 19 24 28 24 19 17 17 14 5
56 57 54 57 52 61 59 58 49 45 38 32 29 25 23 25 25 24 23 22 19 18 18 17 17 18 19 19 19 19 17 16 14 16 19 25 26 22 17 16 14 11 9
55 48 53 56 58 62 58 53 47 43 38 33 28 27 25 24 24 24 22 22 20 20 20 20 20 21 22 22 21 21 21 17 12 16 21 26 27 21 15 12 14 13 16
50 53 48 53 57 60 59 51 46 44 39 34 30 30 30 27 26 26 25 23 23 24 24 25 24 24 23 20 20 19 18 19 21 23 26 27 25 20 14 17 16 19 19
50 45 44 45 47 52 52 47 44 44 41 37 36 35 33 31 30 28 26 24 25 27 28 27 26 25 21 20 21 20 19 23 24 29 28 22 18 15 16 17 21 17 17
40 40 40 40 45 50 50 45 43 45 44 42 40 39 35 32 30 30 30 28 30 29 29 29 26 26 23 19 20 20 22 24 26 27 22 20 15 16 17 15 19 13 14
36 36 38 34 36 44 47 50 49 48 44 44 42 36 35 33 31 32 32 31 30 32 31 29 27 26 26 24 29 28 23 24 28 25 23 19 15 16 19 20 19 14 13
33 36 33 31 33 34 34 39 46 43 43 41 36 37 37 36 34 34 32 31 34 33 32 29 32 32 33 32 32 29 20 21 18 22 20 20 13 19 19 24 24 21 21
30 36 33 32 34 34 33 34 39 38 38 36 33 33 36 40 39 39 35 35 36 37 36 35 37 37 39 36 31 25 12 14 12 19 19 19 19 22 24 27 29 28 25
22 24 34 36 35 34 32 35 36 36 34 34 28 27 26 27 32 35 38 39 39 36 36 33 32 31 27 25 25 25 29 30 16 10 22 24 24 24 28 32 33 29 31
44 41 19 25 32 35 34 33 30 28 30 31 29 30 30 27 29 33 42 43 40 31 31 32 30 27 24 26 31 28 28 29 29 29 14 25 26 27 29 31 34 33 34
49 46 36 35 27 17 20 24 27 16 17 16 8 7 4 9 12 15 17 20 22 23 23 26 30 29 29 31 30 31 29 22 23 26 21 13 20 28 32 34 36 36 36
Wind_Direction_500mb
181 178 175 180 176 175 177 176 175 172 165 160 154 152 150 155 154 153 139 109 150 141 122 107 105 102 97 86 82 81 81 80 78 75 75 74 78 72 67 64 65 45 60
176 178 178 178 176 175 170 167 169 169 164 159 161 162 164 163 171 186 161 144 116 132 119 110 110 104 96 91 85 82 81 83 78 70 65 59 50 65 54 47 40 34 31
176 175 179 177 177 171 161 158 160 161 158 160 168 173 185 195 207 195 156 136 124 120 119 117 108 104 99 94 87 80 74 71 68 59 56 53 39 31 45 33 26 19 13
176 177 178 177 179 169 167 165 166 163 170 174 181 190 207 220 208 183 162 148 127 122 119 113 109 103 95 87 76 70 62 53 46 46 43 39 32 22 31 29 22 14 12
176 177 180 178 180 176 176 172 177 177 180 187 198 205 214 213 188 172 171 154 138 130 126 122 118 110 96 75 57 45 37 35 38 36 28 27 37 13 20 30 27 12 12
174 176 182 181 183 180 178 180 181 185 189 195 202 206 206 193 177 170 169 157 147 140 136 132 127 120 99 70 49 41 27 21 28 33 29 13 13 356 8 27 31 15 12
178 179 182 183 187 183 183 183 184 189 192 195 197 198 191 184 178 173 165 156 150 151 151 151 149 145 132 94 35 27 26 38 61 44 19 1 347 343 345 355 28 360 356
179 180 183 185 191 188 187 188 190 189 188 191 193 189 184 182 182 175 166 160 163 168 170 171 174 171 164 154 2 28 42 48 47 15 4 358 339 340 345 338 8 343 335
183 180 183 185 192 196 196 195 191 189 192 194 191 190 188 191 191 180 173 172 175 183 186 190 194 191 202 221 257 53 25 22 18 337 338 340 326 330 340 348 354 319 314
185 184 181 184 189 196 198 199 194 194 201 201 194 193 195 202 196 184 182 185 192 196 203 204 205 211 221 242 245 260 344 347 354 340 341 330 331 330 337 343 318 302 305
188 191 186 186 185 188 198 203 199 205 211 208 200 199 198 199 180 183 188 196 203 208 213 216 221 228 235 239 236 272 316 340 340 349 347 336 334 344 347 355 297 301 310
185 189 190 194 192 186 193 203 205 208 213 210 206 204 195 193 188 189 203 212 217 219 221 230 239 243 245 242 255 270 316 315 314 327 329 334 337 338 329 301 297 299 308
187 187 191 195 195 190 195 199 206 208 211 210 211 211 207 204 208 212 216 218 218 219 230 247 248 248 246 244 248 261 285 301 298 319 324 332 332 330 331 314 288 295 297
189 191 195 194 197 191 198 200 208 212 214 215 216 217 218 218 220 220 218 218 219 226 241 247 245 252 256 259 257 262 278 290 295 311 319 331 332 327 321 306 305 309 295
193 194 196 193 197 192 199 202 206 214 219 222 224 224 223 224 225 225 225 226 231 239 244 250 249 256 262 262 264 267 280 293 301 308 317 327 326 319 309 309 312 317 287
195 196 192 195 197 201 200 207 207 214 220 226 227 226 223 222 221 225 229 228 233 240 247 252 253 254 259 262 265 269 278 290 304 307 314 321 324 314 299 302 306 309 304
196 192 193 197 200 204 205 213 213 216 223 228 233 232 230 227 227 228 229 233 239 246 250 256 259 262 265 268 270 272 274 282 288 303 312 316 322 318 300 276 274 277 279
187 191 198 200 204 204 210 212 209 219 224 228 235 239 238 238 236 231 233 238 245 252 257 262 265 266 268 267 271 273 276 293 286 300 309 315 317 307 287 248 258 260 234
190 188 199 206 208 207 215 213 212 219 228 234 238 241 240 237 230 232 238 243 250 255 261 265 269 271 268 270 270 269 264 271 279 292 297 305 306 304 270 251 250 242 278
197 196 203 211 213 211 216 220 215 220 228 237 243 243 235 237 236 238 245 249 255 259 264 270 271 269 272 271 269 278 267 271 275 285 282 286 281 295 262 251 240 256 289
195 202 210 214 210 210 211 221 220 221 232 240 240 236 237 242 243 247 253 255 257 264 262 260 263 267 269 270 275 279 274 276 276 271 271 263 274 282 243 240 237 256 269
213 221 222 221 214 212 213 209 218 221 230 238 243 244 247 247 248 252 258 263 264 263 263 259 261 267 266 265 266 270 270 269 247 250 248 247 252 249 238 236 235 244 254
213 215 217 218 222 220 218 216 220 226 234 239 244 251 255 250 249 258 252 257 260 261 261 261 261 262 268 270 264 258 253 248 208 233 231 230 245 243 244 242 236 246 260
156 202 204 205 215 212 220 222 222 229 237 244 250 250 246 244 240 242 245 251 253 260 267 268 267 262 258 262 268 265 263 260 251 210 234 232 239 245 252 251 249 256 259
73 82 133 194 216 217 216 216 218 229 238 244 251 251 245 248 248 255 256 255 255 259 266 269 264 256 262 271 277 274 272 265 257 247 232 236 239 242 243 245 258 261 267
68 62 61 66 81 129 171 200 186 184 197 181 196 211 244 237 252 273 290 285 285 275 279 270 268 270 269 272 270 276 267 260 258 254 245 238 247 248 244 252 261 262 262
Wind_Speed_850mb
53 58 56 50 40 32 28 37 37 32 30 29 31 30 23 20 13 4 4 14 23 25 20 22 21 21 21 21 22 23 21 21 21 19 17 16 18 17 16 14 12 10 7
61 61 58 50 39 32 31 40 38 34 30 32 30 24 18 13 8 5 8 8 24 22 21 21 21 19 19 19 18 19 18 16 14 14 14 16 14 14 14 13 11 9 8
62 61 59 50 42 35 41 45 39 35 34 33 30 22 15 11 8 8 11 13 23 23 21 19 19 17 15 14 13 14 14 13 11 12 12 9 8 10 12 13 12 12 12
62 59 60 53 47 42 49 48 44 39 34 31 25 20 15 13 12 14 13 16 20 21 19 18 15 13 11 10 10 10 10 9 9 9 9 7 7 8 10 13 16 16 15
63 58 60 55 49 45 51 47 44 37 33 28 24 20 17 15 15 17 17 17 19 18 16 15 12 9 7 7 7 8 8 8 7 6 6 6 6 6 9 13 21 22 16
62 59 59 56 51 48 50 48 43 37 31 27 24 19 18 18 19 19 20 19 18 17 14 12 9 6 4 4 4 5 6 7 7 7 6 7 6 6 8 10 18 27 24
66 60 60 56 51 49 48 45 41 36 30 26 21 20 20 20 21 20 19 18 18 16 13 11 8 6 3 2 3 5 6 7 8 8 8 8 8 9 9 9 15 18 23
68 62 62 56 50 47 49 44 39 36 29 24 22 23 22 21 22 22 19 18 16 14 12 10 7 4 3 1 1 2 5 7 8 7 9 8 9 11 13 12 10 15 16
65 56 60 59 51 46 46 46 41 35 28 23 23 23 23 23 24 22 20 18 14 13 12 9 7 5 4 2 1 1 4 5 6 7 10 10 12 11 15 9 11 15 20
62 56 51 53 52 45 45 44 41 34 28 25 25 24 23 25 26 23 21 18 15 13 12 10 8 7 6 4 3 1 2 5 7 10 11 11 12 14 8 12 13 13 23
61 66 50 53 49 44 43 44 40 32 27 25 25 24 21 21 22 21 20 18 15 13 12 10 9 8 7 5 4 4 4 6 7 7 10 13 16 15 11 10 5 21 22
60 62 55 55 61 51 49 47 42 36 30 28 27 25 22 23 23 21 20 18 17 15 13 12 11 10 8 7 7 6 6 8 7 9 11 16 17 18 13 9 15 23 23
57 55 55 51 57 62 57 52 45 36 34 31 29 27 25 23 23 21 20 18 17 15 13 13 11 10 10 10 9 8 8 10 9 11 15 19 21 20 16 14 18 26 26
58 57 58 52 55 63 58 56 48 38 37 32 29 27 26 24 23 21 20 18 18 17 15 14 14 13 12 12 11 11 12 13 12 14 16 21 25 24 18 16 23 21 17
54 56 59 54 54 62 63 56 51 43 38 32 28 25 25 25 24 23 22 22 20 20 17 15 15 15 15 16 16 15 15 15 15 16 19 24 28 24 19 17 17 14 5
56 57 54 57 52 61 59 58 49 45 38 32 29 25 23 25 25 24 23 22 19 18 18 17 17 18 19 19 19 19 17 16 14 16 19 25 26 22 17 16 14 11 9
55 48 53 56 58 62 58 53 47 43 38 33 28 27 25 24 24 24 22 22 20 20 20 20 20 21 22 22 21 21 21 17 12 16 21 26 27 21 15 12 14 13 16
50 53 48 53 57 60 59 51 46 44 39 34 30 30 30 27 26 26 25 23 23 24 24 25 24 24 23 20 20 19 18 19 21 23 26 27 25 20 14 17 16 19 19
50 45 44 45 47 52 52 47 44 44 41 37 36 35 33 31 30 28 26 24 25 27 28 27 26 25 21 20 21 20 19 23 24 29 28 22 18 15 16 17 21 17 17
40 40 40 40 45 50 50 45 43 45 44 42 40 39 35 32 30 30 30 28 30 29 29 29 26 26 23 19 20 20 22 24 26 27 22 20 15 16 17 15 19 13 14
36 36 38 34 36 44 47 50 49 48 44 44 42 36 35 33 31 32 32 31 30 32 31 29 27 26 26 24 29 28 23 24 28 25 23 19 15 16 19 20 19 14 13
33 36 33 31 33 34 34 39 46 43 43 41 36 37 37 36 34 34 32 31 34 33 32 29 32 32 33 32 32 29 20 21 18 22 20 20 13 19 19 24 24 21 21
30 36 33 32 34 34 33 34 39 38 38 36 33 33 36 40 39 39 35 35 36 37 36 35 37 37 39 36 31 25 12 14 12 19 19 19 19 22 24 27 29 28 25
22 24 34 36 35 34 32 35 36 36 34 34 28 27 26 27 32 35 38 39 39 36 36 33 32 31 27 25 25 25 29 30 16 10 22 24 24 24 28 32 33 29 31
44 41 19 25 32 35 34 33 30 28 30 31 29 30 30 27 29 33 42 43 40 31 31 32 30 27 24 26 31 28 28 29 29 29 14 25 26 27 29 31 34 33 34
49 46 36 35 27 17 20 24 27 16 17 16 8 7 4 9 12 15 17 20 22 23 23 26 30 29 29 31 30 31 29 22 23 26 21 13 20 28 32 34 36 36 36
Wind_Direction_850mb
181 178 175 180 176 175 177 176 175 172 165 160 154 152 150 155 154 153 139 109 150 141 122 107 105 102 97 86 82 81 81 80 78 75 75 74 78 72 67 64 65 45 60
176 178 178 178 176 175 170 167 169 169 164 159 161 162 164 163 171 186 161 144 116 132 119 110 110 104 96 91 85 82 81 83 78 70 65 59 50 65 54 47 40 34 31
176 175 179 177 177 171 161 158 160 161 158 160 168 173 185 195 207 195 156 136 124 120 119 117 108 104 99 94 87 80 74 71 68 59 56 53 39 31 45 33 26 19 13
176 177 178 177 179 169 167 165 166 163 170 174 181 190 207 220 208 183 162 148 127 122 119 113 109 103 95 87 76 70 62 53 46 46 43 39 32 22 31 29 22 14 12
176 177 180 178 180 176 176 172 177 177 180 187 198 205 214 213 188 172 171 154 138 130 126 122 118 110 96 75 57 45 37 35 38 36 28 27 37 13 20 30 27 12 12
174 176 182 181 183 180 178 180 181 185 189 195 202 206 206 193 177 170 169 157 147 140 136 132 127 120 99 70 49 41 27 21 28 33 29 13 13 356 8 27 31 15 12
178 179 182 183 187 183 183 183 184 189 192 195 197 198 191 184 178 173 165 156 150 151 151 151 149 145 132 94 35 27 26 38 61 44 19 1 347 343 345 355 28 360 356
179 180 183 185 191 188 187 188 190 189 188 191 193 189 184 182 182 175 166 160 163 168 170 171 174 171 164 154 2 28 42 48 47 15 4 358 339 340 345 338 8 343 335
183 180 183 185 192 196 196 195 191 189 192 194 191 190 188 191 191 180 173 172 175 183 186 190 194 191 202 221 257 53 25 22 18 337 338 340 326 330 340 348 354 319 314
185 184 181 184 189 196 198 199 194 194 201 201 194 193 195 202 196 184 182 185 192 196 203 204 205 211 221 242 245 260 344 347 354 340 341 330 331 330 337 343 318 302 305
188 191 186 186 185 188 198 203 199 205 211 208 200 199 198 199 180 183 188 196 203 208 213 216 221 228 235 239 236 272 316 340 340 349 347 336 334 344 347 355 297 301 310
185 189 190 194 192 186 193 203 205 208 213 210 206 204 195 193 188 189 203 212 217 219 221 230 239 243 245 242 255 270 316 315 314 327 329 334 337 338 329 301 297 299 308
187 187 191 195 195 190 195 199 206 208 211 210 211 211 207 204 208 212 216 218 218 219 230 247 248 248 246 244 248 261 285 301 298 319 324 332 332 330 331 314 288 295 297
189 191 195 194 197 191 198 200 208 212 214 215 216 217 218 218 220 220 218 218 219 226 241 247 245 252 256 259 257 262 278 290 295 311 319 331 332 327 321 306 305 309 295
193 194 196 193 197 192 199 202 206 214 219 222 224 224 223 224 225 225 225 226 231 239 244 250 249 256 262 262 264 267 280 293 301 308 317 327 326 319 309 309 312 317 287
195 196 192 195 197 201 200 207 207 214 220 226 227 226 223 222 221 225 229 228 233 240 247 252 253 254 259 262 265 269 278 290 304 307 314 321 324 314 299 302 306 309 304
196 192 193 197 200 204 205 213 213 216 223 228 233 232 230 227 227 228 229 233 239 246 250 256 259 262 265 268 270 272 274 282 288 303 312 316 322 318 300 276 274 277 279
187 191 198 200 204 204 210 212 209 219 224 228 235 239 238 238 236 231 233 238 245 252 257 262 265 266 268 267 271 273 276 293 286 300 309 315 317 307 287 248 258 260 234
190 188 199 206 208 207 215 213 212 219 228 234 238 241 240 237 230 232 238 243 250 255 261 265 269 271 268 270 270 269 264 271 279 292 297 305 306 304 270 251 250 242 278
197 196 203 211 213 211 216 220 215 220 228 237 243 243 235 237 236 238 245 249 255 259 264 270 271 269 272 271 269 278 267 271 275 285 282 286 281 295 262 251 240 256 289
195 202 210 214 210 210 211 221 220 221 232 240 240 236 237 242 243 247 253 255 257 264 262 260 263 267 269 270 275 279 274 276 276 271 271 263 274 282 243 240 237 256 269
213 221 222 221 214 212 213 209 218 221 230 238 243 244 247 247 248 252 258 263 264 263 263 259 261 267 266 265 266 270 270 269 247 250 248 247 252 249 238 236 235 244 254
213 215 217 218 222 220 218 216 220 226 234 239 244 251 255 250 249 258 252 257 260 261 261 261 261 262 268 270 264 258 253 248 208 233 231 230 245 243 244 242 236 246 260
156 202 204 205 215 212 220 222 222 229 237 244 250 250 246 244 240 242 245 251 253 260 267 268 267 262 258 262 268 265 263 260 251 210 234 232 239 245 252 251 249 256 259
73 82 133 194 216 217 216 216 218 229 238 244 251 251 245 248 248 255 256 255 255 259 266 269 264 256 262 271 277 274 272 265 257 247 232 236 239 242 243 245 258 261 267
68 62 61 66 81 129 171 200 186 184 197 181 196 211 244 237 252 273 290 285 285 275 279 270 268 270 269 272 270 276 267 260 258 254 245 238 247 248 244 252 261 262 262